Salina, KS

7:22 AM CST on February 14, 2016 (GMT -0600)
Salina Municipal

Weather History for KSLN - November, 2012

Change the Weather History Date:

Monday, November 12, 2012

  Actual Average Record
Temperature  
Mean Temperature 37 °F 46 °F  
Max Temperature 52 °F 57 °F 77 °F (1989)
Min Temperature 22 °F 35 °F 8 °F (1911)
Degree Days  
Heating Degree Days 28 19  
Month to date heating degree days 160 198  
Since 1 July heating degree days 492 516  
Cooling Degree Days 0 0  
Month to date cooling degree days 0 0  
Year to date cooling degree days 2051 1646  
Moisture  
Dew Point 17 °F    
Average Humidity 48    
Maximum Humidity 74    
Minimum Humidity 22    
Precipitation  
Precipitation 0.00 in 0.05 in 2.21 in (2010)
Month to date precipitation 0.32 0.58  
Year to date precipitation 17.90 29.89  
Sea Level Pressure  
Sea Level Pressure 30.39 in    
Wind  
Wind Speed 7 mph (West)    
Max Wind Speed 22 mph    
Max Gust Speed 26 mph    
Visibility 10 miles    
Events      
T = Trace of Precipitation, MM = Missing Value Source: NWS Daily Summary

Daily Weather History Graph

Daily Weather History Graph

Search for Another Location

Airport or City:

Trip Planner

Search our weather history database for the weather conditions in past years. The results will help you decide how hot, cold, wet, or windy it might be!

Date:

Astronomy

Nov. 12, 2012 Rise Set
Actual Time 7:10 AM CST 5:18 PM CST
Civil Twilight 6:41 AM CST 5:47 PM CST
Nautical Twilight 6:09 AM CST 6:19 PM CST
Astronomical Twilight 5:38 AM CST 6:50 PM CST
Moon 5:37 AM CST (11/12) 4:24 PM CST (11/12)
Length of Visible Light 11h 05m
Length of Day
10h 08m
Waning Crescent, 2% of the Moon is Illuminated
Nov 12
Waning Crescent
Nov 13
New
Nov 20
First Quarter
Nov 28
Full
Dec 6
Last Quarter

Hourly Weather History & Observations

Time (CST) Temp. Windchill Dew Point Humidity Pressure Visibility Wind Dir Wind Speed Gust Speed Precip Events Conditions
12:53 AM 28.9 °F 18.6 °F 17.1 °F 61% 30.32 in 10.0 mi West 12.7 mph - N/A   Clear
1:53 AM 28.0 °F 19.3 °F 17.1 °F 63% 30.33 in 10.0 mi WNW 9.2 mph - N/A   Clear
2:53 AM 26.1 °F - 15.1 °F 63% 30.34 in 10.0 mi Calm Calm - N/A   Clear
3:53 AM 23.0 °F 18.4 °F 15.1 °F 72% 30.34 in 10.0 mi South 3.5 mph - N/A   Clear
4:53 AM 23.0 °F - 16.0 °F 74% 30.35 in 10.0 mi Calm Calm - N/A   Clear
5:53 AM 24.1 °F - 15.1 °F 69% 30.38 in 10.0 mi Calm Calm - N/A   Clear
6:53 AM 24.1 °F 16.0 °F 15.1 °F 69% 30.40 in 10.0 mi WSW 6.9 mph - N/A   Clear
7:53 AM 26.1 °F 18.4 °F 16.0 °F 66% 30.42 in 10.0 mi WSW 6.9 mph - N/A   Clear
8:53 AM 30.9 °F 24.3 °F 18.0 °F 59% 30.44 in 10.0 mi WNW 6.9 mph - N/A   Clear
9:53 AM 37.9 °F 32.1 °F 19.0 °F 47% 30.44 in 10.0 mi WNW 8.1 mph - N/A   Clear
10:53 AM 44.1 °F 37.7 °F 17.1 °F 34% 30.45 in 10.0 mi West 12.7 mph - N/A   Clear
11:53 AM 46.9 °F - 12.9 °F 25% 30.43 in 10.0 mi WNW 15.0 mph - N/A   Clear
12:53 PM 48.9 °F - 12.9 °F 24% 30.40 in 10.0 mi WNW 16.1 mph - N/A   Clear
1:53 PM 50.0 °F - 14.0 °F 24% 30.38 in 10.0 mi WNW 16.1 mph 26.5 mph N/A   Clear
2:53 PM 51.1 °F - 14.0 °F 23% 30.38 in 10.0 mi WNW 13.8 mph - N/A   Clear
3:53 PM 51.1 °F - 14.0 °F 23% 30.39 in 10.0 mi WNW 13.8 mph - N/A   Clear
4:53 PM 48.0 °F - 17.1 °F 29% 30.40 in 10.0 mi NW 4.6 mph - N/A   Clear
5:53 PM 44.1 °F - 18.0 °F 35% 30.40 in 10.0 mi Calm Calm - N/A   Clear
6:53 PM 30.2 °F 26.7 °F 21.2 °F 69% 30.37 in 10.0 mi South 3.5 mph - N/A   Clear
7:53 PM 30.0 °F 26.5 °F 21.0 °F 69% 30.42 in 10.0 mi South 3.5 mph - N/A   Clear
8:53 PM 33.1 °F 30.0 °F 19.9 °F 59% 30.42 in 10.0 mi South 3.5 mph - N/A   Clear
9:53 PM 34.0 °F - 19.9 °F 56% 30.43 in 10.0 mi Calm Calm - N/A   Clear
10:53 PM 32.0 °F 27.5 °F 19.9 °F 61% 30.42 in 10.0 mi SSE 4.6 mph - N/A   Clear
11:53 PM 28.0 °F 24.2 °F 19.9 °F 72% 30.42 in 10.0 mi South 3.5 mph - N/A   Clear